ECMWFFLT2_925_thetae_132.txt.gz
Theta_e
343 342 342 343 343 342 341 341 341 341 342 341 342 341 341 340 339 336 331 329 328 328 329 328 323 324 320 316 327 332 329 328 329 328 325 320 317 320 325 327 328 329 329 329 329 329 329 327 326 326 327 326 325 327 332 335 335 334 335 336 334 333
343 343 343 343 343 343 342 341 341 341 342 342 341 340 340 339 336 331 327 331 335 336 337 336 333 330 322 316 324 327 327 328 327 327 323 318 316 317 320 322 324 325 325 325 325 326 325 324 327 330 330 329 328 330 333 335 335 334 336 336 334 333
343 342 343 343 343 344 342 342 342 341 342 341 341 341 339 336 334 329 330 335 337 337 337 337 334 332 329 321 319 322 326 327 327 327 324 320 318 316 316 316 316 317 317 319 321 323 323 326 331 332 332 331 331 333 334 335 334 335 337 336 334 333
343 342 343 343 344 343 341 343 344 342 343 341 341 341 338 337 337 333 336 338 336 336 336 337 334 336 337 325 318 324 325 326 328 328 327 325 322 318 316 314 314 316 318 322 325 325 327 331 334 334 332 332 334 335 335 335 335 337 337 335 335 335
343 342 342 342 344 343 341 344 345 344 343 342 342 342 340 340 340 337 336 336 335 338 336 331 329 333 334 322 318 324 324 326 327 327 327 326 323 321 319 319 317 321 327 329 330 330 331 332 332 333 332 333 335 336 336 335 337 338 337 336 336 336
343 342 342 341 343 342 343 344 344 344 344 343 343 342 342 340 340 337 334 335 334 336 336 330 327 331 329 323 320 322 322 323 323 325 325 324 325 323 323 326 326 328 331 332 332 332 332 331 331 333 333 335 335 336 336 336 338 338 337 337 336 336
343 342 342 341 342 342 343 344 344 344 344 344 343 342 342 340 341 336 333 337 333 334 338 336 336 337 333 326 322 321 322 323 325 327 326 325 331 330 328 333 334 333 333 333 334 332 333 334 335 336 334 335 335 336 337 337 339 338 337 337 336 336
343 341 341 341 341 341 342 343 344 344 344 344 343 342 341 341 341 335 335 338 334 335 340 337 337 338 335 331 327 326 326 328 330 331 328 329 334 334 332 334 335 335 334 335 335 335 335 336 337 336 335 336 336 337 337 337 340 339 338 337 335 335
343 340 339 341 340 341 342 342 344 345 344 344 343 342 341 342 340 336 339 339 336 338 341 338 337 337 336 334 331 330 330 332 334 334 333 333 336 335 335 336 336 337 337 336 336 336 336 335 336 335 335 336 335 337 337 338 340 340 338 336 334 333
342 340 338 340 340 340 341 342 344 345 344 344 343 342 341 341 340 338 340 340 339 341 340 340 339 338 338 337 336 336 336 337 336 336 335 335 337 336 337 339 339 339 338 336 336 335 334 335 335 335 336 336 335 337 337 338 339 340 338 336 334 332
341 340 339 340 340 340 341 341 344 345 344 344 342 341 341 341 341 340 340 341 342 341 341 341 340 339 338 338 338 338 338 337 337 338 337 337 338 337 339 339 338 339 338 336 336 336 335 335 334 334 335 336 336 337 337 338 338 339 337 335 334 332
339 339 339 340 340 340 341 342 343 344 344 343 341 341 341 341 341 340 340 341 342 342 342 341 341 338 336 337 338 337 338 338 338 339 338 338 339 338 338 338 337 338 337 337 337 336 335 334 334 334 336 337 337 337 337 336 337 337 336 335 334 333
338 338 340 340 340 341 342 343 343 344 343 341 341 341 340 340 340 340 341 341 342 342 341 340 339 338 338 338 338 338 339 338 338 339 338 339 339 339 337 337 336 337 337 337 336 335 333 333 334 336 337 337 337 336 335 334 334 334 334 334 333 332
337 338 340 340 341 341 342 343 342 343 342 341 342 341 340 340 341 342 342 343 343 342 339 339 338 338 339 338 338 339 339 339 339 339 339 338 339 338 337 337 336 336 337 336 334 333 332 333 335 337 338 336 335 334 333 332 331 330 330 330 330 330
337 338 341 340 341 341 341 342 342 342 342 343 342 340 340 342 343 343 343 343 343 341 338 338 338 339 340 338 337 338 339 339 340 339 338 338 338 337 337 336 335 335 336 334 333 333 333 335 336 337 336 334 333 332 331 329 329 329 328 327 327 327
338 339 341 341 341 341 342 342 342 342 343 343 340 340 342 343 343 342 343 342 342 341 339 339 338 338 339 338 337 338 339 339 339 338 338 339 338 337 337 336 334 335 337 334 333 333 334 336 336 336 334 333 333 330 329 328 327 326 324 324 324 324
339 340 341 341 341 342 342 341 342 342 343 342 340 342 342 343 342 341 342 341 341 340 338 339 339 337 338 338 339 338 339 339 338 338 338 338 337 336 337 336 334 336 337 336 334 333 334 335 336 335 333 332 331 329 329 327 325 322 320 319 319 320
339 341 341 342 341 343 343 341 342 342 342 342 342 343 342 342 342 340 341 340 340 339 337 339 338 337 338 338 338 337 338 339 338 338 337 337 336 336 336 335 334 335 336 335 335 334 334 336 335 334 332 331 330 329 327 325 322 320 317 315 316 318
338 341 342 342 342 343 343 341 341 342 343 343 343 343 342 342 342 340 340 340 340 339 338 339 338 337 337 337 337 338 338 338 338 338 337 336 336 336 335 334 335 335 335 334 334 334 333 335 335 333 332 330 329 327 324 321 319 317 315 314 315 316
339 341 342 342 343 343 342 341 342 343 342 342 343 342 341 341 341 340 340 340 340 338 338 339 338 336 336 337 337 338 338 337 337 337 336 335 335 335 334 335 334 333 334 333 332 333 334 335 334 332 331 329 327 325 323 321 318 315 313 313 313 312
339 341 342 342 342 342 341 341 342 343 342 342 342 341 341 341 340 340 341 340 339 338 338 339 338 337 337 337 337 337 337 336 336 335 335 335 334 334 334 335 334 333 332 332 331 330 331 334 334 332 330 328 325 322 322 320 316 313 312 311 310 308
339 341 342 342 341 340 341 341 341 343 342 341 341 341 341 341 340 341 341 340 339 338 339 340 340 338 336 337 337 336 336 335 335 335 334 334 334 334 334 333 333 333 331 329 327 325 329 334 334 333 331 328 324 320 319 317 313 313 313 312 312 311
340 341 342 341 341 340 340 341 341 342 342 340 340 341 341 341 341 341 340 339 339 339 339 340 340 338 336 337 337 336 335 335 334 334 334 334 333 332 332 332 332 333 331 328 324 321 325 330 331 332 332 330 326 322 320 317 313 312 311 311 312 313
340 341 341 341 340 339 339 340 341 342 341 339 340 340 341 341 340 340 338 338 339 338 338 338 339 337 337 336 336 335 335 334 333 333 333 332 331 330 330 331 331 331 331 329 323 317 318 321 325 329 332 333 330 327 325 320 315 312 311 310 309 310
341 341 341 341 340 339 338 340 341 340 339 340 341 341 341 340 339 338 337 337 338 337 337 337 337 337 336 335 335 334 334 333 332 331 331 330 329 328 328 329 329 330 330 328 322 316 312 313 316 321 326 331 332 331 328 320 316 315 312 311 310 309
341 341 340 341 340 339 339 339 340 339 339 340 341 340 340 339 338 337 337 336 336 336 336 336 336 335 335 334 333 333 332 331 330 329 329 328 327 326 327 327 327 328 328 327 324 319 314 311 312 314 316 321 326 328 326 320 318 317 312 310 311 309
342 341 341 341 340 339 339 338 339 339 339 340 340 340 339 338 338 337 336 335 335 335 335 334 334 334 333 333 332 331 330 329 328 327 327 326 325 324 324 324 325 325 325 326 324 321 316 311 312 313 313 314 317 321 321 320 321 319 316 313 310 308
342 342 342 341 340 339 339 339 340 340 340 340 339 338 338 337 336 336 335 334 334 334 333 332 332 332 332 331 330 329 328 327 326 325 325 324 323 322 320 320 321 322 322 322 321 319 316 314 314 315 314 313 313 314 315 316 317 317 319 319 314 311
342 342 342 341 339 338 339 340 340 340 340 340 338 337 337 336 335 335 334 333 333 332 331 330 329 329 328 327 327 326 326 325 324 323 322 321 320 318 316 315 315 317 318 319 318 318 317 316 316 316 316 315 314 314 313 314 314 314 316 318 318 315
342 342 341 340 340 339 340 340 339 339 339 339 338 337 336 335 334 334 333 332 331 330 329 327 326 325 325 325 324 324 324 323 322 320 318 316 314 312 311 311 312 313 314 315 316 315 314 314 314 314 314 314 314 315 315 314 314 314 315 317 317 314
342 341 340 340 340 340 340 340 339 338 338 338 337 336 335 334 333 332 332 331 330 329 328 326 324 324 323 323 323 322 321 320 319 317 316 314 309 307 309 310 312 312 312 313 313 312 312 312 311 312 312 312 313 313 313 314 313 313 314 315 317 316
342 340 339 340 340 340 340 340 339 339 338 338 337 335 334 333 332 331 330 330 329 328 326 324 323 323 322 321 321 320 319 318 317 316 316 314 311 310 311 312 313 313 313 313 313 312 311 311 310 310 311 311 311 311 311 312 311 311 312 312 314 315
341 340 339 340 340 339 339 340 340 339 338 337 336 335 334 333 332 331 329 329 328 327 325 323 322 322 321 321 320 320 318 317 316 315 314 313 312 312 312 311 312 312 312 312 311 311 311 311 311 310 310 310 310 310 310 310 309 309 310 309 310 311
341 339 339 340 341 340 339 339 339 339 338 336 335 334 333 332 332 331 329 328 328 326 324 324 323 322 321 321 321 319 318 317 316 314 312 311 311 310 310 310 310 311 311 311 310 310 310 310 310 310 310 310 309 309 309 309 309 308 308 308 307 308
341 340 340 340 340 340 340 339 339 338 337 336 335 334 333 332 332 330 329 328 327 326 324 324 323 322 322 321 320 318 317 315 313 311 310 310 310 310 310 310 310 309 309 309 308 308 309 309 309 309 309 309 309 309 309 308 308 307 307 307 307 306
341 341 341 341 340 340 340 339 338 338 336 336 335 334 333 332 331 329 328 328 327 325 325 324 323 322 322 320 319 317 315 313 310 308 309 309 309 309 308 307 307 308 308 308 308 309 309 309 308 308 308 308 308 307 308 308 307 307 306 306 306 305
341 341 341 340 340 340 339 338 337 337 336 335 334 333 332 331 330 328 327 327 326 324 325 324 323 322 321 319 318 316 313 311 309 308 309 309 309 308 307 307 308 309 309 309 309 309 309 308 308 308 308 307 307 307 306 306 307 307 306 306 305 305

ECMWFFLT2_925_thetae_135.txt.gz
Theta_e
340 340 341 341 342 343 343 343 343 342 342 342 342 342 341 340 339 339 336 332 329 326 325 324 321 321 323 322 319 320 321 319 316 315 315 313 316 324 328 328 329 328 328 327 328 327 324 322 325 327 328 327 328 330 329 333 338 336 335 334 333 332
340 340 340 340 341 342 343 343 343 342 342 342 342 342 341 340 339 336 331 328 328 330 333 330 321 320 319 317 319 319 321 322 319 317 315 313 313 318 324 326 326 326 326 326 327 326 322 321 325 329 329 329 330 330 330 334 336 335 335 334 333 332
339 339 339 340 341 342 342 342 342 342 342 342 342 342 340 340 338 331 329 331 334 335 338 335 328 327 320 314 319 320 322 324 322 320 316 313 312 313 316 319 321 322 322 323 323 323 322 321 325 330 330 330 330 330 333 335 336 335 335 334 334 334
339 339 339 340 341 341 342 342 341 341 341 341 342 341 340 338 333 328 332 334 336 337 337 336 332 333 325 315 319 322 322 323 322 320 316 314 312 311 312 313 314 316 318 320 321 322 324 326 329 331 332 332 330 331 335 336 336 336 335 335 335 334
341 341 339 340 340 340 342 341 340 341 341 341 340 340 339 336 330 330 334 334 336 338 337 335 333 336 331 319 319 321 320 320 320 318 316 314 314 314 315 314 315 316 319 321 323 324 326 329 331 332 332 333 332 333 336 336 337 336 336 336 335 334
342 342 340 339 339 339 341 341 340 340 340 340 339 339 337 337 335 334 335 335 337 339 335 331 330 332 328 318 317 318 317 317 317 317 318 320 320 322 322 322 321 321 323 324 324 325 327 331 334 334 333 333 334 335 336 337 337 336 336 335 335 334
342 342 342 340 339 338 340 342 340 340 340 339 340 339 338 339 340 337 335 335 336 337 334 331 331 330 325 318 317 317 318 319 319 320 322 324 325 326 328 329 327 326 328 330 329 329 333 334 335 336 334 334 336 337 337 337 337 336 336 335 333 332
342 342 343 342 342 338 340 344 342 342 341 340 340 340 340 340 341 338 335 335 334 336 337 335 336 335 331 326 322 320 321 322 324 327 328 328 327 328 332 334 332 331 333 335 333 333 335 335 334 336 335 335 337 338 338 337 337 336 334 332 331 330
341 342 342 343 344 339 341 345 344 344 343 341 341 341 341 341 341 337 335 335 333 336 338 337 337 337 334 330 326 325 325 325 328 331 332 332 329 329 334 335 335 335 335 335 334 333 333 334 334 335 335 335 337 338 338 337 337 335 333 331 330 329
341 342 341 342 344 340 341 345 344 344 344 343 342 341 341 342 340 335 336 337 335 338 340 337 337 336 334 330 328 328 328 329 331 333 333 332 332 332 334 336 337 337 336 334 333 333 333 333 334 335 335 336 338 339 338 338 336 334 333 331 329 329
341 341 341 341 343 341 342 344 344 344 344 344 343 342 342 341 339 336 338 339 337 340 340 338 337 335 335 333 332 332 333 334 334 334 334 335 336 335 336 338 338 336 335 334 333 334 333 333 334 335 336 337 338 338 338 337 335 334 333 331 329 328
341 341 340 342 342 341 342 343 343 344 344 344 343 342 342 341 339 338 339 340 339 340 340 339 339 337 337 336 335 336 337 337 336 337 337 337 338 337 337 339 338 336 334 333 333 333 333 333 335 336 336 336 337 338 338 336 335 334 333 331 329 327
341 340 339 341 341 340 341 341 342 344 344 344 343 342 341 340 339 340 340 341 341 340 340 339 339 338 337 337 337 337 337 337 337 338 338 338 337 338 337 337 336 335 335 334 332 331 332 334 336 336 335 334 334 335 336 337 335 333 332 331 330 327
341 339 339 340 341 341 341 340 342 344 344 343 342 341 341 340 341 341 340 340 341 340 339 339 338 338 337 337 337 337 338 337 337 338 338 338 339 338 337 336 335 336 336 334 333 333 334 336 336 335 334 333 332 331 332 332 330 329 329 328 327 324
340 338 340 341 340 341 341 341 342 344 344 342 341 340 341 341 341 341 340 340 340 339 338 338 338 337 337 337 337 337 339 338 339 339 338 338 338 338 337 335 335 335 335 334 334 335 336 336 335 334 332 331 330 329 328 327 326 325 325 324 323 320
339 337 340 340 339 341 341 341 342 343 343 341 341 341 341 341 341 340 340 340 340 339 338 338 338 337 336 337 336 337 339 339 339 338 337 337 337 337 336 335 334 334 335 335 335 336 336 335 334 332 330 329 328 327 326 325 324 323 322 321 320 319
338 337 339 340 340 341 342 342 342 342 342 341 341 341 341 341 341 341 340 340 340 339 339 338 337 336 336 336 337 337 338 339 338 337 337 338 337 336 335 334 334 335 335 335 335 335 335 334 333 331 329 327 326 325 324 323 321 320 319 318 318 317
338 338 340 341 340 341 341 341 342 342 342 341 341 341 342 341 341 341 340 340 340 338 338 338 336 336 337 337 337 337 338 338 337 337 337 337 337 336 335 334 334 335 335 334 335 335 334 333 331 329 327 325 324 324 322 322 321 319 317 317 316 315
337 337 341 341 340 341 341 341 342 342 342 342 341 341 342 342 341 341 340 339 339 338 337 337 336 337 336 336 337 337 337 337 337 337 336 336 336 335 334 333 334 334 334 334 334 335 334 332 330 328 326 323 322 322 321 321 320 318 315 315 315 313
337 337 341 341 340 341 341 342 342 342 343 342 342 342 342 341 340 340 340 339 338 337 337 336 336 336 336 336 336 337 337 337 337 337 336 335 335 334 334 334 334 333 334 333 333 335 333 331 329 326 323 322 321 320 320 319 314 310 309 309 311 311
339 338 341 341 340 342 342 342 342 342 342 342 342 342 342 341 340 340 340 339 338 337 338 337 336 336 336 337 337 337 337 337 336 336 335 335 334 334 334 334 334 332 332 332 332 334 332 331 328 324 321 319 317 317 316 314 308 303 303 304 305 307
340 339 341 341 341 342 342 341 342 342 342 343 342 341 342 341 340 340 340 338 338 338 338 337 336 336 337 337 337 337 336 335 335 335 334 334 334 334 334 334 334 332 330 330 329 330 331 331 329 325 321 318 317 315 313 310 306 304 305 307 306 305
340 341 341 341 342 342 342 341 341 342 342 342 342 341 341 341 341 340 339 338 338 338 338 337 336 336 337 337 336 336 335 335 334 334 333 333 333 333 333 332 333 332 329 326 323 324 330 332 331 326 323 323 323 321 318 313 309 308 307 308 308 306
340 342 341 342 342 342 341 341 341 342 342 341 341 341 341 341 341 340 339 339 339 338 338 338 337 336 336 336 335 335 334 334 333 333 332 332 331 331 332 331 332 332 329 325 318 317 324 330 331 328 328 330 326 325 327 319 312 310 308 306 306 305
340 342 341 342 342 342 341 341 342 342 341 341 341 341 341 340 340 338 338 339 339 339 338 338 337 336 336 335 335 334 333 333 332 332 331 331 330 329 330 330 330 330 330 327 318 312 316 322 329 330 330 331 328 329 330 319 313 313 310 309 308 305
340 341 341 342 342 341 341 341 342 341 340 341 341 340 340 339 339 337 338 338 338 338 337 337 337 336 335 334 334 334 333 332 331 330 330 329 329 328 328 329 329 328 327 325 317 310 311 314 320 325 326 327 329 332 326 316 317 316 311 310 310 308
340 341 341 342 341 341 341 341 341 340 340 341 340 340 340 339 338 337 337 337 337 337 336 336 335 335 334 333 333 333 332 331 330 329 328 328 327 326 327 327 328 328 325 323 318 311 310 312 314 317 319 321 324 328 323 318 318 317 313 312 309 308
340 341 341 341 340 340 340 340 341 340 340 340 340 340 339 338 337 336 337 337 336 336 335 335 334 333 333 332 331 330 330 329 328 328 327 326 325 325 325 325 325 326 324 323 319 313 311 313 313 313 315 317 319 321 319 317 317 315 317 317 312 309
341 341 341 341 339 339 339 340 340 339 340 340 340 340 339 337 337 336 336 335 335 334 334 334 333 333 332 331 330 328 328 327 326 327 326 325 323 322 323 323 323 324 322 319 316 312 313 314 315 314 314 314 314 315 314 315 315 314 317 319 317 313
341 341 341 341 339 338 338 339 339 338 339 340 339 338 338 337 336 335 335 334 334 333 332 333 332 332 332 330 328 327 326 326 325 325 325 324 321 318 317 319 320 321 320 318 315 313 315 315 315 314 314 314 312 312 312 313 313 313 314 315 317 315
342 341 341 340 340 339 339 339 338 338 339 339 338 337 336 335 334 334 333 333 332 332 331 331 330 329 329 328 326 325 325 324 323 322 321 320 317 313 312 314 317 318 318 316 315 314 314 314 313 313 312 312 311 311 311 311 311 312 312 312 316 315
342 342 341 340 340 339 339 339 338 339 339 338 337 336 335 335 334 333 332 331 330 330 329 328 326 325 325 325 324 324 323 322 320 316 313 312 312 311 310 311 312 314 314 313 312 312 311 311 311 311 311 310 310 310 310 310 309 310 310 310 313 312
342 342 341 340 340 339 339 340 339 340 339 337 336 336 335 334 333 332 331 330 329 328 326 324 324 323 323 323 322 322 321 319 317 313 309 309 311 311 310 310 310 311 311 311 310 309 310 310 310 310 309 309 309 308 308 308 308 308 309 309 309 309
342 342 341 340 339 339 339 339 339 339 338 337 336 335 335 334 333 332 331 330 328 326 324 324 323 322 321 321 320 319 318 316 315 312 310 311 312 312 310 309 310 310 310 310 309 309 309 309 308 308 308 308 308 307 307 307 307 306 307 307 307 307
341 341 341 341 340 339 340 339 339 339 337 337 336 335 334 333 332 331 330 329 327 325 324 323 322 321 320 319 318 317 316 315 314 312 311 311 311 310 309 309 309 309 309 309 309 308 308 308 308 307 307 307 306 306 306 306 305 305 305 305 305 306
341 341 340 341 340 339 339 340 339 338 337 337 336 334 333 332 331 330 329 328 326 324 323 322 321 320 320 319 318 317 316 314 312 311 310 310 310 309 308 307 308 308 308 308 308 308 307 307 306 306 306 306 305 305 306 305 305 305 304 303 304 305
340 340 340 340 340 339 340 340 339 338 337 336 335 334 333 332 331 329 329 328 326 324 323 322 321 321 320 319 318 317 315 312 310 309 310 310 309 307 307 307 308 307 307 307 307 307 307 306 305 305 304 304 305 305 305 305 305 304 304 303 302 303

ECMWFFLT2_925_thetae_138.txt.gz
Theta_e
339 340 340 340 341 342 343 342 342 342 342 342 342 342 341 341 341 340 339 338 335 330 327 325 321 318 318 319 321 324 322 318 317 317 315 316 320 322 325 326 327 327 326 326 326 324 323 323 325 327 327 328 328 326 331 336 336 334 333 332 332 331
339 340 340 340 340 342 343 342 342 342 342 342 342 342 341 341 341 339 337 334 330 328 327 321 316 314 315 316 319 322 321 316 313 315 315 314 318 321 323 324 324 325 325 326 324 323 321 321 322 325 326 326 327 327 331 336 335 333 333 333 333 333
340 340 340 340 341 342 342 342 343 342 342 342 342 342 341 341 340 336 332 329 329 333 332 325 322 319 313 314 317 319 318 314 312 313 313 313 314 317 320 322 324 324 325 325 323 321 321 322 323 325 325 326 328 329 332 336 334 334 334 334 335 335
340 341 340 341 341 342 343 342 343 342 342 342 342 341 340 340 337 331 329 330 333 336 334 330 330 323 313 314 318 317 317 315 313 311 310 311 311 313 317 320 321 322 322 321 320 320 322 324 326 328 330 330 330 331 334 336 335 335 335 335 335 335
340 340 340 341 342 343 343 342 342 342 342 342 342 340 340 338 332 329 332 334 336 336 334 332 329 322 314 315 317 316 316 316 315 313 311 311 311 311 313 315 317 318 319 319 321 322 323 327 330 332 334 333 331 333 336 336 335 335 335 335 335 335
339 340 339 340 342 342 343 341 341 342 342 341 341 339 339 336 329 331 335 335 336 336 334 331 325 318 316 316 316 316 316 318 318 317 316 315 315 316 318 319 320 321 323 324 327 328 329 331 333 335 334 333 333 335 336 335 336 335 334 334 335 334
339 339 339 339 341 341 342 341 341 341 341 340 340 339 337 332 330 333 335 335 337 336 332 330 325 318 317 316 316 316 317 319 319 319 320 321 322 323 326 328 329 329 329 329 332 332 333 334 334 335 334 333 334 336 336 336 335 333 331 332 332 332
338 338 338 339 340 341 341 340 340 341 340 340 339 338 336 332 333 335 335 336 337 335 332 332 329 324 320 317 317 318 319 320 321 321 323 325 326 326 329 332 333 333 332 332 333 333 334 334 334 334 334 335 337 337 336 335 332 330 329 328 328 327
338 339 338 339 339 339 341 339 339 340 339 339 338 337 336 335 335 335 335 336 336 335 334 333 333 330 326 320 319 319 320 322 323 325 328 329 329 328 329 332 333 333 335 335 334 333 333 333 334 335 335 337 337 336 335 333 330 329 328 327 325 324
339 340 339 338 338 337 339 339 337 339 338 338 338 337 338 339 339 338 335 335 336 336 336 335 335 334 332 328 323 322 322 323 325 328 331 331 331 329 329 333 334 335 336 334 333 333 333 333 333 334 336 338 335 334 334 331 329 328 327 326 324 323
340 341 340 339 338 337 337 338 337 339 339 338 339 339 340 340 340 339 335 334 335 335 336 337 336 336 336 333 328 326 325 326 327 329 331 332 332 331 330 334 336 336 335 333 333 333 332 333 333 334 337 338 333 331 333 331 329 328 326 326 324 324
341 342 341 340 340 337 336 339 340 341 341 339 340 340 340 341 341 337 335 336 333 334 337 338 337 336 336 334 330 328 328 328 329 330 332 333 334 335 334 336 338 336 334 333 333 333 332 333 333 334 337 337 332 331 333 331 329 327 326 326 324 323
341 342 342 342 342 338 337 341 342 342 342 341 341 341 341 341 339 336 337 336 333 335 339 338 337 336 335 334 331 330 332 333 333 333 334 335 336 337 337 338 337 334 333 333 332 332 333 335 335 336 337 336 331 330 332 331 329 328 326 325 323 321
341 342 341 341 342 340 339 342 343 342 343 342 342 341 341 342 339 336 338 338 335 336 339 339 338 337 335 335 334 333 335 336 336 336 336 337 337 337 337 337 336 334 334 333 332 332 334 335 334 335 336 336 333 332 332 330 328 328 326 323 321 317
341 342 341 341 342 340 339 342 342 342 343 343 343 342 342 342 338 336 338 340 339 338 339 339 339 338 337 336 336 335 336 337 337 337 337 337 338 337 337 336 335 335 334 333 334 334 333 332 331 332 334 336 335 333 331 329 328 326 323 319 316 312
341 341 341 341 342 341 340 342 342 342 343 343 343 342 342 340 338 337 339 339 340 340 339 338 338 338 337 337 337 336 337 337 337 338 338 338 338 337 336 335 335 334 334 334 334 333 331 329 328 328 331 332 331 328 326 325 323 321 318 316 314 311
341 340 340 340 341 341 340 341 342 342 343 343 343 342 340 339 338 339 340 339 339 340 338 338 338 338 337 337 337 337 338 338 338 338 338 338 338 336 335 334 335 334 334 335 333 330 329 327 326 324 324 324 323 322 321 320 319 318 317 315 313 310
341 340 339 339 341 341 340 340 341 342 344 343 342 340 340 340 340 340 340 340 339 339 338 337 337 337 337 336 336 337 338 339 338 338 337 337 337 335 335 334 335 335 335 335 331 329 326 325 324 322 320 320 319 319 318 318 317 316 316 314 312 310
340 340 339 340 341 341 341 340 341 343 343 342 341 340 340 340 340 340 340 340 339 339 338 338 337 336 336 336 336 337 338 339 338 337 337 337 336 335 334 335 334 334 335 334 331 328 326 324 322 321 319 318 318 318 317 316 316 316 314 313 311 310
340 339 340 340 341 341 341 342 342 343 342 341 341 341 341 341 340 340 340 340 339 338 338 338 336 336 336 336 336 337 338 338 337 337 337 337 335 334 334 334 334 334 334 332 329 328 326 325 321 318 317 317 316 315 314 312 311 312 312 311 310 309
340 339 339 340 341 341 342 342 342 342 341 341 341 341 341 341 340 340 340 339 339 338 338 337 336 336 336 336 336 337 337 337 337 336 336 335 334 334 333 333 333 334 334 331 327 325 327 327 322 316 315 314 313 311 309 306 304 305 307 308 308 308
339 338 338 339 341 341 342 342 342 342 341 342 341 341 341 341 340 340 340 339 338 338 337 336 336 336 336 336 336 337 337 337 336 335 335 334 334 334 333 332 332 333 333 331 327 325 327 328 323 317 315 313 313 312 309 307 307 307 305 304 304 306
338 337 338 340 341 341 342 342 342 342 341 342 341 341 341 341 340 340 340 339 338 337 337 336 335 335 336 336 336 337 337 336 335 334 334 334 334 334 333 333 332 332 331 331 329 327 328 329 325 320 319 320 320 319 316 311 310 311 306 303 302 303
338 338 340 341 341 341 342 342 342 342 342 342 341 341 341 340 340 339 339 338 337 337 337 337 335 335 336 336 337 336 336 335 334 334 334 333 333 333 333 333 332 331 330 328 326 327 329 330 328 324 326 327 322 324 327 317 310 309 306 303 303 304
338 337 340 341 341 341 342 342 342 342 342 342 341 341 340 340 340 339 339 338 337 337 337 336 335 336 336 336 336 335 335 334 333 333 333 333 333 333 332 332 332 332 330 327 324 324 328 329 330 328 328 329 326 329 330 318 312 311 307 305 305 305
338 338 339 341 341 341 341 341 342 341 341 341 341 340 340 340 340 339 339 338 337 338 337 337 336 336 336 336 335 334 334 333 333 332 332 332 332 332 332 331 331 331 330 328 323 322 325 328 329 328 329 330 330 332 325 315 316 317 311 309 307 306
339 339 340 341 341 341 341 341 341 341 341 341 340 340 340 340 340 339 339 338 339 339 338 337 336 336 335 334 334 333 333 333 332 332 331 331 331 330 330 330 330 330 330 329 324 320 322 325 328 326 327 328 328 329 325 317 318 317 313 312 309 307
340 340 341 341 341 341 341 341 341 341 341 341 340 340 340 339 339 339 339 339 339 338 338 337 336 336 335 334 334 333 333 332 331 331 330 330 330 328 328 329 328 328 328 325 321 319 318 321 324 322 322 325 326 327 325 320 317 315 315 315 311 308
339 340 341 341 342 342 341 341 341 341 341 340 340 339 339 339 338 338 338 338 337 337 337 336 335 335 334 334 333 333 332 331 331 330 329 329 328 327 327 327 327 327 325 320 316 315 313 315 319 318 319 322 322 321 319 318 316 312 314 316 315 311
339 340 340 341 342 341 341 341 341 341 340 340 339 339 338 338 337 337 337 337 336 336 335 335 334 333 333 333 333 332 332 331 330 329 328 327 326 326 326 325 325 326 324 321 316 312 310 312 314 315 318 320 319 317 315 314 314 313 312 313 313 311
339 340 340 341 341 341 341 341 341 340 340 339 338 338 337 337 336 336 336 335 335 335 334 333 332 332 331 331 331 330 330 329 328 327 326 325 324 324 324 323 323 322 322 320 317 313 311 312 313 314 315 316 316 315 314 313 313 314 313 311 312 313
339 340 341 341 341 341 341 340 340 340 340 339 338 337 337 336 336 335 334 334 334 334 333 332 331 331 329 329 328 328 327 327 326 325 324 324 322 320 320 321 321 320 318 317 315 313 312 312 313 313 312 313 313 313 313 313 313 313 312 311 312 312
339 339 340 341 341 341 340 339 339 339 339 339 338 337 337 336 336 335 334 333 333 333 332 331 331 330 329 328 327 326 326 325 324 323 322 320 318 315 316 318 319 318 317 316 314 313 313 312 312 312 311 310 311 311 311 311 311 312 311 310 310 309
339 339 340 340 340 340 340 339 339 339 339 338 338 337 337 336 335 334 334 333 333 333 332 331 330 329 329 327 326 325 325 323 321 318 316 315 313 311 313 316 316 316 315 314 313 313 312 312 311 310 309 309 309 309 309 309 310 310 310 309 309 308
340 340 340 340 340 339 339 339 338 338 338 338 338 337 336 335 335 334 334 333 333 332 331 330 329 328 328 326 324 324 323 320 317 314 311 310 309 309 311 313 313 313 312 312 311 311 311 310 309 308 308 307 307 307 306 307 308 309 309 309 309 308
340 340 340 340 339 339 339 339 338 338 338 338 337 336 335 335 334 334 333 333 332 331 330 329 328 326 325 323 323 322 320 318 315 311 308 308 309 309 310 310 311 310 310 310 309 309 309 308 308 307 306 306 305 305 304 305 305 306 308 308 308 307
340 340 340 339 339 339 339 339 338 338 337 337 336 336 335 334 333 333 332 332 331 330 329 327 325 324 323 322 321 320 317 316 314 311 309 309 309 309 309 309 309 309 308 308 308 307 307 307 306 306 305 305 304 304 303 303 302 303 304 305 306 307

ECMWFFLT2_925_thetae_141.txt.gz
Theta_e
342 341 341 341 342 341 340 341 342 342 342 341 341 340 340 339 339 340 339 339 337 334 330 327 323 317 318 320 318 318 319 321 321 320 319 320 322 323 324 326 326 326 327 327 326 325 325 327 327 326 325 325 327 327 332 336 333 332 332 332 334 335
341 341 341 341 341 341 341 341 341 341 341 341 342 341 340 340 340 340 339 338 335 330 326 324 322 316 313 315 316 317 318 318 319 318 317 319 322 323 325 325 325 326 327 326 325 325 325 326 324 324 325 326 328 329 332 335 333 333 334 334 336 337
340 341 340 341 341 341 342 341 341 341 341 341 341 341 341 341 340 339 338 336 331 328 327 324 320 316 312 313 316 318 318 316 316 317 315 318 322 325 326 326 325 326 326 325 325 324 323 324 324 326 330 329 330 331 333 334 334 334 335 336 337 337
339 340 340 340 340 341 342 341 341 342 341 341 341 341 341 340 339 338 336 331 328 329 329 325 322 320 316 313 316 319 319 318 316 316 314 316 321 325 325 325 326 326 325 324 322 321 322 324 327 331 333 331 331 333 334 334 334 335 336 337 336 337
339 340 340 340 340 341 342 341 341 342 341 342 341 341 341 340 339 337 333 328 329 332 332 328 326 326 320 314 316 319 321 322 318 315 314 314 317 322 324 325 325 323 321 320 320 323 325 327 331 334 333 331 333 335 335 334 335 334 336 337 336 337
339 340 339 339 340 341 342 341 341 341 341 342 341 341 341 339 338 334 330 329 332 334 334 331 329 327 321 316 317 319 321 322 319 315 314 313 313 317 320 320 319 318 318 321 325 329 330 331 333 334 332 332 334 335 335 335 334 335 335 336 336 336
339 339 338 338 340 341 342 341 341 342 341 341 341 341 340 339 335 330 330 332 334 334 333 331 329 326 320 318 318 320 321 320 319 317 316 316 316 317 320 322 323 324 325 327 330 332 333 334 334 333 333 334 335 335 335 334 334 333 333 333 332 331
338 339 339 339 340 342 342 341 341 342 342 341 341 340 339 338 332 329 333 334 334 334 333 331 328 323 321 321 319 320 321 320 320 320 321 321 322 323 326 330 332 331 331 332 333 333 334 334 334 333 334 335 335 335 334 333 331 330 329 328 326 325
339 339 339 339 340 341 342 341 341 342 341 341 341 339 339 336 330 331 334 334 334 335 334 332 328 325 323 322 320 320 320 321 322 322 324 324 326 327 328 331 333 333 334 334 333 333 333 334 334 334 335 336 335 334 332 330 329 327 326 325 324 323
337 338 339 340 341 341 342 341 340 341 340 340 339 338 338 333 330 333 334 334 335 335 334 333 331 329 326 323 320 319 320 321 322 324 326 328 330 329 328 331 333 334 335 335 333 333 333 334 335 335 336 336 334 331 329 327 327 326 326 326 324 322
335 337 339 339 341 341 341 341 340 340 339 339 338 338 337 332 331 333 333 334 335 335 335 334 333 333 331 327 322 320 321 323 325 327 329 330 331 330 329 332 335 335 334 334 333 332 333 334 335 336 336 335 331 329 327 326 326 326 326 326 324 322
335 337 338 339 340 341 340 340 339 339 338 338 338 338 336 333 334 334 334 334 334 334 335 335 335 334 334 333 329 325 323 325 327 328 330 330 331 332 331 333 336 334 333 333 332 332 333 334 336 336 335 332 329 327 325 325 326 326 326 325 323 320
336 337 337 337 339 340 339 339 338 337 337 337 338 337 336 336 337 336 336 335 334 334 334 335 335 336 336 336 335 331 327 327 328 328 330 331 332 333 333 335 336 334 333 333 332 332 332 333 336 336 333 329 327 326 326 326 327 326 324 322 318 313
337 337 336 335 337 338 338 338 337 336 336 337 338 337 337 339 339 339 338 336 335 335 334 335 336 337 337 335 335 333 330 329 329 330 331 332 333 335 336 336 335 333 332 332 332 333 332 334 336 335 330 327 326 326 326 327 326 324 321 317 312 306
337 337 337 336 336 336 336 336 336 336 337 338 338 338 338 340 340 340 338 336 335 336 334 335 337 338 337 336 334 333 332 331 332 334 334 334 335 336 337 336 335 333 332 332 333 333 333 335 335 332 329 326 326 326 327 326 323 320 316 313 308 304
338 338 339 338 337 336 336 335 335 337 339 340 338 339 339 340 341 340 338 335 336 336 334 335 338 339 338 337 335 334 333 333 335 336 336 336 336 337 337 336 335 334 333 333 333 333 334 335 334 331 329 326 325 327 327 324 319 316 313 312 309 305
339 339 340 339 339 339 337 335 337 339 341 341 340 340 340 340 341 340 338 335 336 337 336 338 339 339 339 337 336 336 335 334 335 337 336 337 337 337 336 335 335 334 333 333 331 331 331 332 333 331 329 327 326 328 325 320 316 314 313 311 309 306
340 340 341 340 340 341 339 336 338 341 342 342 342 341 341 341 341 340 338 335 336 338 339 339 339 338 338 337 336 336 336 336 336 337 337 338 337 336 335 334 335 334 333 332 330 329 328 329 330 329 328 327 326 325 321 317 314 313 312 310 309 308
340 340 341 341 341 341 340 338 339 341 342 342 343 342 342 341 341 341 338 336 337 338 339 340 339 337 337 337 337 336 336 337 337 338 337 337 336 335 334 334 334 333 332 330 329 328 327 327 325 324 324 323 322 320 317 315 314 312 311 310 309 308
341 341 341 341 341 341 341 340 340 342 343 342 343 342 342 342 342 341 339 337 338 339 339 339 338 337 337 337 336 336 337 337 338 338 337 336 335 334 334 334 334 333 330 325 323 324 325 323 320 317 317 316 316 315 314 314 312 311 310 310 309 308
340 340 341 341 341 341 341 341 341 343 343 343 343 343 343 342 341 340 338 338 339 339 339 339 338 337 337 336 336 336 337 338 338 337 337 336 335 334 334 334 333 332 329 323 319 319 321 320 316 313 312 312 311 311 311 310 310 309 309 309 309 309
340 339 340 341 340 341 341 341 341 342 342 343 343 343 342 341 340 339 339 339 340 339 339 339 338 337 336 336 336 337 337 338 337 337 336 335 334 334 333 334 333 329 327 324 320 318 320 320 316 312 311 311 311 311 309 308 308 307 308 308 308 306
339 339 340 340 339 340 341 340 341 342 342 343 343 342 341 340 340 340 340 340 340 340 339 339 338 337 336 336 337 336 337 337 337 336 335 334 333 333 333 334 334 330 326 323 321 320 321 323 318 313 314 316 315 315 313 309 308 307 306 306 305 302
339 339 339 339 339 339 340 340 340 341 342 342 342 341 340 340 340 340 340 340 340 339 339 338 338 336 336 336 336 336 337 337 336 335 335 334 333 332 333 333 333 333 329 325 320 319 323 325 322 319 321 323 319 319 319 313 309 308 306 304 303 302
339 339 339 339 340 340 340 341 341 341 341 341 341 341 340 340 340 340 340 340 339 339 338 338 337 336 336 336 336 336 337 337 335 334 334 333 333 332 332 332 332 332 332 328 323 321 324 326 325 323 326 326 324 327 324 314 309 309 307 305 305 304
339 339 339 340 340 340 341 341 341 341 341 341 340 340 340 340 340 340 340 339 339 338 337 337 337 336 335 336 337 336 336 335 334 334 333 333 333 333 332 332 332 332 331 331 328 324 324 326 326 324 326 327 328 331 322 312 313 313 309 307 306 306
339 339 338 339 340 341 341 341 341 341 341 340 339 339 340 340 340 340 339 339 339 338 337 337 336 335 335 336 337 336 335 334 334 333 333 333 332 332 332 331 331 330 330 331 331 327 326 327 325 324 326 327 327 329 321 314 315 314 312 311 307 306
339 339 338 339 340 341 341 341 341 341 340 340 340 340 340 340 340 339 339 339 338 337 337 337 336 336 336 336 336 335 334 334 333 333 333 332 332 332 332 331 330 330 329 329 329 328 327 328 327 325 325 326 326 327 322 317 316 313 314 315 310 307
338 338 338 339 340 340 340 341 341 340 340 340 340 340 340 339 339 339 339 338 338 337 337 337 336 336 336 335 335 334 333 333 333 333 332 331 331 331 330 330 330 329 329 328 326 325 325 327 329 328 325 325 325 323 319 317 316 311 312 315 314 310
338 338 339 339 340 340 340 341 341 340 340 340 340 340 339 339 339 339 339 338 338 337 337 337 337 336 335 334 334 333 333 333 332 332 331 331 330 330 329 328 328 329 329 328 325 321 321 324 328 328 327 325 324 320 317 314 313 311 310 310 311 310
338 338 339 340 340 340 340 341 341 340 340 340 340 339 339 338 338 338 338 338 338 338 337 337 336 335 334 334 333 333 332 332 331 331 330 330 329 328 327 327 327 327 326 325 323 318 317 320 323 324 323 323 324 322 319 316 313 312 311 308 309 310
338 338 339 340 340 340 340 340 341 340 340 340 340 339 339 338 338 338 337 337 337 337 337 336 336 335 334 333 333 332 331 331 331 330 329 328 327 326 326 325 325 326 324 321 319 316 314 315 316 317 319 320 322 321 320 319 316 314 312 309 309 309
338 338 338 339 340 340 340 340 340 340 340 340 339 339 338 338 338 337 337 337 336 336 335 335 334 334 333 332 332 332 331 330 330 329 327 326 326 325 324 323 323 323 322 320 318 315 313 312 313 314 316 317 318 317 316 317 317 315 312 309 309 308
338 338 339 339 339 340 340 340 340 340 340 340 339 338 338 338 338 337 337 337 336 336 335 334 334 332 332 331 331 331 330 329 328 327 326 325 324 323 321 321 321 320 320 318 316 314 312 312 312 312 313 314 314 313 313 313 314 315 313 309 309 309
338 338 339 340 340 340 340 340 340 340 340 339 339 338 337 337 337 337 336 336 336 335 335 334 333 332 331 330 329 329 328 328 327 325 324 322 321 319 317 317 318 317 317 315 314 313 312 311 311 311 311 311 311 311 311 311 312 313 312 309 309 310
337 338 339 339 340 340 340 340 339 339 339 339 338 337 337 337 337 336 336 336 335 335 334 334 333 332 330 329 328 327 327 327 325 323 321 319 317 314 313 315 317 316 315 314 313 313 311 311 310 309 309 309 309 309 309 310 310 310 310 309 309 310
337 338 338 339 339 339 339 339 339 339 339 339 338 337 337 337 336 336 335 335 335 334 334 333 332 331 330 329 327 326 327 325 322 320 317 315 313 311 312 314 315 314 314 313 312 311 310 309 308 308 307 306 306 307 307 308 309 309 309 308 309 309

ECMWFFLT2_925_thetae_144.txt.gz
Theta_e
341 342 341 341 340 340 341 342 342 340 340 339 338 340 340 340 340 339 338 337 336 335 333 331 329 329 332 330 327 326 325 326 327 326 325 325 325 325 328 328 328 329 329 329 329 328 327 326 325 324 326 327 328 332 335 333 332 333 334 336 336 335
341 342 341 340 340 340 341 342 342 341 341 339 339 339 340 339 339 339 339 338 336 334 331 330 326 324 328 328 326 324 323 324 323 322 322 323 323 324 327 327 327 328 329 329 328 327 325 323 324 325 326 328 329 332 334 333 333 334 335 335 335 335
341 341 341 341 340 340 340 341 341 342 341 340 340 340 340 339 339 339 339 338 335 333 330 328 324 322 323 323 326 327 326 325 322 322 321 320 321 323 325 326 326 328 329 328 327 324 322 323 326 329 329 330 331 333 333 333 335 335 335 335 336 336
342 341 341 340 340 340 341 341 341 342 342 341 341 341 340 339 339 339 339 337 333 331 330 328 327 327 325 320 323 328 330 328 324 322 321 319 320 322 323 325 326 327 328 327 323 321 322 325 330 332 331 331 333 333 334 334 335 335 335 335 336 336
342 341 340 340 339 340 340 341 341 341 342 341 340 341 340 339 339 339 338 335 330 331 331 329 327 329 326 320 320 326 330 330 326 322 321 318 319 322 323 325 327 327 326 321 320 324 326 329 332 333 332 333 334 334 334 334 335 336 336 336 336 336
341 341 340 340 339 339 340 341 340 340 341 340 340 341 341 340 339 339 338 333 329 330 332 330 328 327 325 322 320 323 327 328 325 321 318 316 317 322 324 326 325 323 320 320 324 330 331 332 333 333 332 334 334 334 335 334 335 335 335 335 335 335
340 340 340 340 340 339 340 341 340 341 340 340 340 341 341 340 338 338 336 331 328 330 332 332 330 327 325 322 320 321 324 324 322 320 316 314 314 318 321 321 321 320 322 326 329 332 333 333 333 333 334 335 335 335 334 334 335 334 333 332 331 330
339 340 339 340 340 340 340 341 341 341 341 340 340 341 341 340 338 337 334 329 329 331 332 332 330 328 325 320 318 321 322 322 321 320 317 315 314 318 321 323 325 327 329 331 332 332 334 333 333 333 334 335 335 334 334 334 333 331 329 327 325 324
339 339 339 339 340 340 340 341 341 341 341 341 341 341 340 340 339 335 330 330 331 332 333 333 330 327 324 321 320 320 321 322 322 321 319 319 321 324 328 330 332 333 333 333 333 333 333 333 334 334 335 335 334 333 333 331 328 327 325 323 321 320
338 339 339 339 339 339 340 340 340 341 341 341 341 341 340 340 339 333 329 332 333 332 333 333 331 327 323 322 321 319 320 321 322 322 323 325 327 328 329 332 334 334 334 333 332 333 334 334 334 335 335 334 333 331 329 327 326 326 324 322 320 318
338 339 339 338 338 339 340 340 340 340 340 341 341 341 340 340 338 331 329 333 333 333 334 333 332 330 327 324 320 318 319 321 322 324 327 330 330 329 329 333 334 334 334 332 332 333 334 334 335 335 334 333 330 328 326 326 326 325 323 321 319 316
338 338 338 338 338 338 339 340 340 340 340 340 340 340 339 339 336 330 330 333 333 334 335 334 334 332 331 329 323 320 320 321 323 325 328 330 331 331 330 334 335 333 333 332 332 334 334 335 335 334 333 330 328 326 326 326 325 323 320 317 315 313
338 338 338 337 337 338 339 340 340 340 340 339 339 339 338 338 334 330 332 333 333 334 334 334 335 334 334 334 332 328 325 323 324 325 327 329 332 332 332 334 334 332 332 332 332 334 335 335 333 332 330 327 326 326 325 325 323 320 316 312 310 309
338 338 338 337 337 338 339 340 340 340 339 339 338 337 337 336 332 330 332 333 333 334 334 334 334 334 335 336 336 335 332 329 326 326 327 329 332 333 333 334 334 332 332 332 332 334 335 334 332 329 326 326 326 325 325 323 319 315 311 308 307 307
338 338 338 338 338 338 339 340 340 340 339 338 337 336 336 335 332 332 333 333 334 334 333 334 333 334 335 337 337 335 335 333 329 328 329 331 333 334 335 335 333 332 332 332 333 334 334 333 329 326 324 325 325 324 322 319 315 311 308 305 304 304
338 338 338 338 338 338 339 339 339 339 338 338 337 336 336 335 334 334 335 336 337 335 334 335 333 333 336 338 337 336 335 333 331 331 333 334 334 335 336 335 333 332 331 332 333 333 333 330 327 324 323 324 325 323 320 316 313 310 307 305 302 301
338 338 338 338 338 339 339 339 338 338 337 336 336 337 336 336 336 336 338 339 338 336 335 335 334 334 337 338 338 337 336 334 332 333 335 336 335 336 336 335 333 332 332 332 332 333 331 328 326 323 323 324 323 320 316 313 312 310 307 305 302 299
338 338 338 338 338 339 339 339 338 337 336 336 336 337 336 336 337 339 339 340 339 336 335 335 335 335 338 338 338 337 336 335 334 333 335 336 336 336 335 334 333 332 332 332 332 332 330 328 325 323 324 323 320 316 314 312 311 309 308 306 302 299
338 338 339 339 338 338 339 338 338 338 337 336 336 337 337 337 338 339 340 340 339 336 335 336 336 338 339 338 338 337 336 336 335 335 335 336 337 336 334 334 334 331 331 332 333 332 330 328 325 324 324 321 316 313 312 311 310 309 308 306 303 300
338 339 339 339 339 339 339 339 338 339 338 337 337 338 338 338 339 339 340 340 339 337 336 337 338 339 338 337 337 337 336 336 336 336 336 337 337 335 334 334 333 331 330 330 330 329 327 327 324 320 319 317 313 312 312 311 310 309 308 307 305 302
338 339 339 339 340 340 339 339 339 339 340 338 339 340 339 339 340 340 340 341 340 337 336 337 338 339 338 337 337 336 336 336 336 337 337 337 336 334 333 334 332 330 330 330 327 325 326 327 322 315 314 313 311 311 311 311 310 309 308 308 307 304
338 339 339 340 340 340 339 339 339 339 340 340 341 341 341 341 340 340 340 341 340 337 336 337 338 339 338 337 336 336 336 335 336 337 337 336 335 334 333 333 331 328 328 328 326 325 326 326 318 312 311 310 310 310 309 309 309 309 308 308 307 304
339 339 339 340 340 340 340 339 339 338 339 341 341 342 342 341 341 340 341 341 340 337 337 338 339 339 338 337 336 336 335 336 337 337 337 335 334 333 333 333 332 329 326 323 322 322 323 323 317 312 311 312 313 312 310 308 308 309 308 307 305 302
339 339 339 340 340 340 340 340 340 339 339 341 341 342 342 342 342 341 341 341 340 338 338 339 339 339 338 337 336 336 336 336 337 337 336 335 333 333 333 332 331 330 328 323 319 319 321 321 319 316 315 316 314 313 313 310 308 307 307 305 303 302
339 339 339 339 340 340 340 340 340 340 340 341 341 342 342 341 341 341 341 340 339 338 339 339 339 339 338 337 336 336 336 336 337 337 336 335 333 333 333 332 331 330 329 327 320 318 320 320 320 320 321 320 318 318 316 311 308 308 305 304 303 302
339 339 339 339 340 340 340 340 340 340 340 341 341 341 341 341 340 340 340 339 339 339 339 339 339 338 337 336 336 336 336 336 336 336 335 334 333 333 333 332 332 330 329 330 324 319 320 320 319 321 324 323 323 325 317 309 310 310 307 306 305 304
339 339 339 339 339 340 340 340 340 340 340 340 340 340 340 340 340 340 340 339 339 339 339 339 338 338 337 335 335 335 336 336 336 335 335 334 333 332 333 332 332 331 329 329 326 321 322 322 319 320 325 324 325 326 318 310 312 311 309 309 306 305
339 339 338 339 339 339 339 340 340 340 340 340 340 339 340 340 340 339 339 339 339 339 339 338 337 337 336 335 335 335 336 336 336 335 334 333 333 332 332 332 331 331 330 328 327 325 324 324 322 321 323 324 326 325 317 311 310 309 310 311 308 307
339 339 338 339 339 339 339 339 340 340 339 340 340 340 340 340 340 339 339 339 339 339 338 337 337 336 336 335 334 335 336 336 335 334 333 333 333 332 332 332 331 331 330 328 328 327 325 326 326 324 323 324 325 319 312 311 310 307 309 310 310 308
339 338 338 338 339 339 339 339 339 340 340 339 339 339 339 339 339 338 338 338 338 338 338 337 337 336 336 335 335 335 335 335 334 333 333 333 332 332 331 331 331 331 330 330 328 327 327 327 327 327 325 325 323 317 312 312 310 308 308 308 309 308
339 338 338 338 339 339 339 339 339 339 339 339 339 339 339 339 338 337 337 337 337 337 337 336 336 336 335 335 335 335 334 334 333 333 333 332 332 332 331 331 330 330 329 329 329 328 327 327 327 327 326 325 325 322 319 317 314 311 309 308 309 309
338 338 338 338 339 339 339 339 339 339 339 339 339 339 338 338 337 336 336 336 336 336 335 335 335 335 335 335 335 334 334 333 333 332 332 331 331 331 330 329 329 328 328 328 328 326 325 324 323 325 326 325 325 326 325 325 322 317 312 310 309 308
338 338 338 338 338 339 339 339 339 339 339 339 339 339 339 338 337 337 336 336 336 336 336 335 335 335 335 335 334 333 333 333 332 332 331 331 330 329 328 327 327 326 326 327 326 324 322 321 320 321 325 326 325 325 325 325 324 320 315 310 308 307
338 337 338 338 338 339 339 339 339 340 339 339 339 339 339 338 338 337 337 337 337 336 336 335 335 335 335 334 334 333 333 332 331 331 331 330 329 327 326 325 325 324 324 324 322 320 318 317 317 317 320 322 322 322 323 322 321 319 314 310 308 307
338 337 337 338 338 338 339 339 339 339 339 339 339 339 339 339 338 338 338 337 337 337 336 335 334 334 335 334 334 333 332 331 331 331 330 328 326 325 324 323 322 322 322 321 318 317 315 314 314 314 315 316 317 319 319 318 317 317 314 311 308 306
338 337 337 338 338 338 339 339 339 339 339 339 339 339 339 339 339 339 338 338 337 337 336 335 334 334 334 334 333 333 332 330 330 330 327 326 324 324 322 321 319 319 320 319 317 316 315 313 312 312 313 313 314 315 315 314 314 315 313 310 308 306
337 337 337 338 338 338 338 338 339 339 339 339 339 339 339 339 339 338 338 338 337 337 336 335 335 334 334 333 332 332 331 330 329 328 326 324 323 321 319 317 315 317 318 317 316 315 313 312 312 311 311 311 312 312 312 312 313 314 313 310 307 306